ANJALA Weather Reports


Display with metric or nautical units.
time (UTC)temp
F
wind
direction
speed
MPH
gust
MPH
rain 1hr
in
rain 24hr
in
rain mn
in
humidity
%
barometer
mb
20260506164719 49 0.0 0.0 0.00 0.00 0.00 43
20260506162720 50 0.0 0.0 0.00 0.00 0.00 43
20260506160719 51 0.0 0.0 0.00 0.00 0.00 38
20260506154720 52 0.0 0.0 0.00 0.00 0.00 38
20260506152719 51 0.0 0.0 0.00 0.00 0.00 38
20260506150719 52 0.0 0.0 0.00 0.00 0.00 39
20260506144719 53 0.0 0.0 0.00 0.00 0.00 37
20260506140719 55 0.0 0.0 0.00 0.00 0.00 22
20260506134719 52 0.0 0.0 0.00 0.00 0.00 23
20260506132719 53 0.0 0.0 0.00 0.00 0.00 22
20260506124718 53 0.0 0.0 0.00 0.00 0.00 22
20260506122719 55 0.0 0.0 0.00 0.00 0.00 22
20260506120718 54 0.0 0.0 0.00 0.00 0.00 24
20260506112719 53 0.0 0.0 0.00 0.00 0.00 23
20260506110719 53 0.0 0.0 0.00 0.00 0.00 25
20260506104719 54 0.0 0.0 0.00 0.00 0.00 29
20260506102719 50 0.0 0.0 0.00 0.00 0.00 29
20260506100719 50 0.0 0.0 0.00 0.00 0.00 28
20260506094719 52 0.0 0.0 0.00 0.00 0.00 31
20260506090718 50 0.0 0.0 0.00 0.00 0.00 31
20260506084719 49 0.0 0.0 0.00 0.00 0.00 35
20260506082719 48 0.0 0.0 0.00 0.00 0.00 34
20260506080718 47 0.0 0.0 0.00 0.00 0.00 41
20260506072719 47 0.0 0.0 0.00 0.00 0.00 46
20260506070718 46 0.0 0.0 0.00 0.00 0.00 53
20260506060718 42 0.0 0.0 0.00 0.00 0.00 58
20260506050718 39 0.0 0.0 0.00 0.00 0.00 68
20260506044718 38 0.0 0.0 0.00 0.00 0.00 70
20260506042718 37 0.0 0.0 0.00 0.00 0.00 72
20260506040717 36 0.0 0.0 0.00 0.00 0.00 73
20260506034717 34 0.0 0.0 0.00 0.00 0.00 77
20260506032717 34 0.0 0.0 0.00 0.00 0.00 78
20260506030718 33 0.0 0.0 0.00 0.00 0.00 81
20260506024717 33 0.0 0.0 0.00 0.00 0.00 80
20260506022717 33 0.0 0.0 0.00 0.00 0.00 80
20260506020717 31 0.0 0.0 0.00 0.00 0.00 87
20260506014717 30 0.0 0.0 0.00 0.00 0.00 87
20260506012717 31 0.0 0.0 0.00 0.00 0.00 85
20260506010717 32 0.0 0.0 0.00 0.00 0.00 82
20260506004717 34 0.0 0.0 0.00 0.00 0.00 76
20260506002717 35 0.0 0.0 0.00 0.00 0.00 74
20260506000717 35 0.0 0.0 0.00 0.00 0.00 75
20260505234717 35 0.0 0.0 0.00 0.00 0.00 74
20260505232717 36 0.0 0.0 0.00 0.00 0.00 69
20260505230717 37 0.0 0.0 0.00 0.00 0.00 67
20260505224717 37 0.0 0.0 0.00 0.00 0.00 65
20260505222716 38 0.0 0.0 0.00 0.00 0.00 63
20260505220717 38 0.0 0.0 0.00 0.00 0.00 61
20260505214717 38 0.0 0.0 0.00 0.00 0.00 60
20260505212717 38 0.0 0.0 0.00 0.00 0.00 62
20260505210716 38 0.0 0.0 0.00 0.00 0.00 65
20260505204716 38 0.0 0.0 0.00 0.00 0.00 66
20260505202716 39 0.0 0.0 0.00 0.00 0.00 67
20260505200716 39 0.0 0.0 0.00 0.00 0.00 69
20260505194716 40 0.0 0.0 0.00 0.00 0.00 69
20260505192717 40 0.0 0.0 0.00 0.00 0.00 62
20260505190716 42 0.0 0.0 0.00 0.00 0.00 61
20260505184716 43 0.0 0.0 0.00 0.00 0.00 61
20260505182716 44 0.0 0.0 0.00 0.00 0.00 52
20260505180715 46 0.0 0.0 0.00 0.00 0.00 51
20260505174716 48 0.0 0.0 0.00 0.00 0.00 45
20260505172715 49 0.0 0.0 0.00 0.00 0.00 39
20260505170715 50 0.0 0.0 0.00 0.00 0.00 38